PLO weather

Port Lincoln Airport
Port Lincoln, South Australia, Australia

Public forecast

Using degrees Celsius for public forecast. Weather courtesy of forecast.io.

Closest aviation weather report (METAR) to Port Lincoln Airport

Closest report is Whyalla Airport, 123.5 nm (228.8 km) NE. Retrieved 2019/11/21 15:00 UTC (5 minutes ago):

YWHA 211500Z AUTO 18013KT //// // ////// 17/11 Q1016

Closest aviation forecast (TAF) to Port Lincoln Airport

Forecast is more than 12 hours old.

Closest forecast is Whyalla Airport, 123.5 nm (228.8 km) NE. Retrieved 2018/11/15 18:03 UTC (1 year ago):

TAF YWHA 151701Z 1518/1608 VRB05KT CAVOK FM152300 18012KT CAVOK FM160200 18018KT CAVOK